Hourly Data Report for May 01, 2018

MIRAMICHI RCS
NEW BRUNSWICK
Current Station Operator: ECCC - MSC

47°00'34.000" N
65°27'54.000" W
33.00 m
8100989
71744
ACQ

Download Data

Hourly Data (May 2018)
Hourly Data Report for May 1, 2018
TIME
LST
Temp Definition
°C
Dew Point Definition
°C
Rel Hum Definition
%
Precip. Amount Definition
mm

Wind Dir Definition
10's deg

Wind Spd Definition
km/h
Visibility Definition
km
Stn Press Definition
kPa
Hmdx Definition


Wind Chill Definition


Weather Definition


00:00 2.7 2.4 98 0.2 0 1   101.10     LegendNANA
01:00 2.7 2.4 98 0.0 34 4   101.01     LegendNANA
02:00 2.7 2.3 98 0.0 2 2   101.04     LegendNANA
03:00 2.6 2.2 98 0.0 32 3   101.00     LegendNANA
04:00 2.3 1.9 97 0.0 29 5   100.95     LegendNANA
05:00 2.1 1.7 97 0.0 28 3   101.01     LegendNANA
06:00 2.2 1.8 98 0.0 28 5   101.00     LegendNANA
07:00 2.9 2.5 98 0.0 35 5   100.98     LegendNANA
08:00 3.7 3.4 98 0.0 30 5   100.98     LegendNANA
09:00 4.7 3.7 93 0.0 30 7   100.97     LegendNANA
10:00 5.8 4.5 91 0.0 27 10   100.95     LegendNANA
11:00 7.4 4.7 83 0.0 26 7   100.92     LegendNANA
12:00 7.7 5.1 84 0.0 21 6   100.90     LegendNANA
13:00 8.4 5.2 81 0.0 26 7   100.83     LegendNANA
14:00 9.1 5.9 81 0.0 29 6   100.81     LegendNANA
15:00 10.2 6.0 75 0.0 35 7   100.73     LegendNANA
16:00 11.8 6.1 68 0.0 3 3   100.68     LegendNANA
17:00 12.9 6.0 63 0.0 28 6   100.62     LegendNANA
18:00 12.7 5.6 62 0.0 29 8   100.61     LegendNANA
19:00 11.8 6.0 68 0.0 33 1   100.60     LegendNANA
20:00 9.7 5.4 74 0.0 32 8   100.65     LegendNANA
21:00 7.6 4.2 79 0.0 28 9   100.70     LegendNANA
22:00 6.3 3.8 84 0.0 26 8   100.71     LegendNANA
23:00 4.0 2.3 88 0.0 22 5   100.72     LegendNANA

Notes on Data Quality.

Legend

  • E = Estimated
  • M = Missing
  • NA = Not Available*
  • [empty] = Indicates an unobserved value
Date modified: